Weather History for New Bedford, MA

Change the Weather History Date:

Thursday, February 28, 2013

  Actual Average Record
Temperature  
Mean Temperature 42 °F -  
Max Temperature 48 °F 43 °F 61 °F (1976)
Min Temperature 35 °F 29 °F 7 °F (2006)
Degree Days  
Heating Degree Days 24    
Moisture  
Dew Point 37 °F    
Average Humidity 88    
Maximum Humidity 100    
Minimum Humidity 68    
Precipitation  
Precipitation 0.00 in - - ()
Sea Level Pressure  
Sea Level Pressure 29.57 in    
Wind  
Wind Speed 3 mph (West)    
Max Wind Speed 9 mph    
Max Gust Speed -    
Visibility 8 miles    
Events      
Averages and records for this station are not official NWS values.
T = Trace of Precipitation, MM = Missing Value Source: NWS Daily Summary

Daily Weather History Graph

Daily Weather History Graph

Search for Another Location

Airport:

Trip Planner

Search our weather history database for the weather conditions in past years. The results will help you decide how hot, cold, wet, or windy it might be!

Date:

Astronomy

Feb. 28, 2013 Rise Set
Actual Time 6:19 AM EST 5:33 PM EST
Civil Twilight 5:51 AM EST 6:01 PM EST
Nautical Twilight 5:19 AM EST 6:33 PM EST
Astronomical Twilight 4:47 AM EST 7:05 PM EST
Moon 9:00 PM EST (2/28) 7:24 AM EST (2/28)
Length of Visible Light 12h 09m
Length of Day
11h 13m
Waning Gibbous, 91% of the Moon is Illuminated
Feb 28
Waning Gibbous
Mar 4
Last Quarter
Mar 11
New
Mar 19
First Quarter
Mar 27
Full

Hourly Weather History & Observations

Time (EST) Temp. Windchill Dew Point Humidity Pressure Visibility Wind Dir Wind Speed Gust Speed Precip Events Conditions
12:28 AM 41.0 °F 38.0 °F 41.0 °F 100% 29.57 in 1.8 mi West 4.6 mph - N/A   Overcast
12:53 AM 41.0 °F 38.0 °F 41.0 °F 100% 29.58 in 1.0 mi WSW 4.6 mph - N/A   Overcast
1:53 AM 39.9 °F 34.5 °F 39.0 °F 97% 29.58 in 1.5 mi West 8.1 mph - N/A   Overcast
2:05 AM 39.2 °F 33.0 °F 39.2 °F 100% 29.58 in 3.0 mi West 9.2 mph - N/A   Overcast
2:53 AM 37.9 °F 33.5 °F 37.0 °F 97% 29.58 in 7.0 mi WNW 5.8 mph - N/A   Overcast
3:39 AM 37.4 °F 34.9 °F 35.6 °F 93% 29.59 in 10.0 mi West 3.5 mph - N/A   Overcast
3:53 AM 37.0 °F - 35.1 °F 93% 29.60 in 10.0 mi Calm Calm - N/A   Overcast
4:53 AM 37.0 °F - 35.1 °F 93% 29.61 in 10.0 mi Calm Calm - N/A   Mostly Cloudy
5:53 AM 37.0 °F 34.5 °F 35.1 °F 93% 29.62 in 10.0 mi West 3.5 mph - N/A   Overcast
6:53 AM 37.0 °F - 35.1 °F 93% 29.62 in 10.0 mi Calm Calm - N/A   Mostly Cloudy
6:58 AM 37.4 °F - 35.6 °F 93% 29.61 in 10.0 mi Calm Calm - N/A   Scattered Clouds
7:11 AM 37.4 °F - 35.6 °F 93% 29.61 in 10.0 mi Calm Calm - N/A   Mostly Cloudy
7:53 AM 39.0 °F 35.7 °F 36.0 °F 89% 29.64 in 10.0 mi WSW 4.6 mph - N/A   Overcast
8:04 AM 37.4 °F 32.1 °F 35.6 °F 93% 29.64 in 10.0 mi West 6.9 mph - N/A   Overcast
8:12 AM 39.2 °F 35.9 °F 35.6 °F 87% 29.64 in 10.0 mi West 4.6 mph - N/A   Overcast
8:53 AM 39.0 °F - 36.0 °F 89% 29.64 in 10.0 mi Calm Calm - N/A   Overcast
9:53 AM 39.9 °F 37.8 °F 37.0 °F 89% 29.62 in 10.0 mi WNW 3.5 mph - N/A   Overcast
10:53 AM 41.0 °F - 37.0 °F 86% 29.62 in 9.0 mi Calm Calm - N/A   Overcast
11:06 AM 41.0 °F - 37.4 °F 87% 29.61 in 9.0 mi Calm Calm - N/A   Overcast
11:53 AM 42.1 °F - 37.0 °F 82% 29.61 in 9.0 mi Calm Calm - N/A   Overcast
12:53 PM 43.0 °F - 37.9 °F 82% 29.57 in 10.0 mi Calm Calm - N/A   Overcast
1:53 PM 46.0 °F - 39.0 °F 76% 29.55 in 10.0 mi Calm Calm - N/A   Overcast
2:02 PM 48.2 °F - 39.2 °F 71% 29.54 in 10.0 mi Calm Calm - N/A   Mostly Cloudy
2:11 PM 46.4 °F 45.2 °F 39.2 °F 76% 29.54 in 10.0 mi WSW 3.5 mph - N/A   Overcast
2:53 PM 46.9 °F - 37.0 °F 68% 29.53 in 10.0 mi Calm Calm - N/A   Mostly Cloudy
3:53 PM 46.9 °F - 37.0 °F 68% 29.53 in 10.0 mi Calm Calm - N/A   Overcast
4:00 PM 46.4 °F - 37.4 °F 71% 29.53 in 10.0 mi Calm Calm - N/A   Overcast
4:53 PM 46.0 °F 43.9 °F 37.0 °F 71% 29.53 in 10.0 mi WNW 4.6 mph - N/A   Overcast
5:53 PM 44.1 °F - 37.0 °F 76% 29.53 in 10.0 mi Calm Calm - N/A   Overcast
6:53 PM 42.1 °F - 37.9 °F 85% 29.53 in 7.0 mi Calm Calm - N/A   Overcast
7:53 PM 41.0 °F - 37.0 °F 86% 29.53 in 6.0 mi Calm Calm - N/A   Scattered Clouds
8:53 PM 37.9 °F - 36.0 °F 93% 29.54 in 5.0 mi Calm Calm - N/A   Scattered Clouds
9:45 PM 35.6 °F - 35.6 °F 100% 29.52 in 2.0 mi Calm Calm - N/A   Clear
9:53 PM 36.0 °F - 35.1 °F 97% 29.52 in 2.0 mi Calm Calm - N/A   Clear
10:05 PM 37.4 °F - 35.6 °F 93% 29.52 in 1.0 mi Calm Calm - N/A   Clear
10:40 PM 35.6 °F - 33.8 °F 93% 29.51 in 2.0 mi Calm Calm - N/A   Mostly Cloudy
10:53 PM 36.0 °F - 35.1 °F 97% 29.51 in 2.5 mi Calm Calm - N/A   Mostly Cloudy
11:10 PM 37.4 °F - 35.6 °F 93% 29.51 in 6.0 mi Calm Calm - N/A   Overcast
11:45 PM 39.2 °F - 35.6 °F 87% 29.51 in 10.0 mi Calm Calm - N/A   Overcast
11:53 PM 37.9 °F 35.5 °F 35.1 °F 89% 29.52 in 10.0 mi NNW 3.5 mph - N/A   Overcast